Terminal Aerodrome Forecast
Issued by NWS Omaha/Valley, NE

Home | Current Version | Previous Version | Graphics & Text | Print | Product List | Glossary On
Versions: 1 2 3 4 5 6 7 8 9 10 11 12 13 14 15 16 17 18 19 20 21 22 23 24 25 26 27 28 29 30 31 32 33 34 35 36 37 38 39 40 41 42 43 44 45 46 47 48
000
FTUS43 KOAX 122147 AAA
TAFOFK
TAF AMD
KOFK 122147Z 1222/1318 02008KT P6SM SCT015 BKN040
      TEMPO 1222/1301 BKN015
     FM130100 01006KT P6SM SCT020 SCT250
     FM130600 VRB04KT P6SM SCT250
      TEMPO 1310/1313 4SM BR
     FM131500 VRB03KT P6SM SCT040 BKN100=

USA.gov is the U.S. government's official web portal to all federal, state and local government web resources and services.